Zurück zum Katalog

CZ-6A DEB

AktivPO
NORAD 61136·DEBRIS·🇨🇳 China

Gestartet Aug 6, 2024 von Taiyuan Satellite Launch Center

Loading…

Nächste Überflüge (nächste 24 Stunden)

TLE

AktuellSource: Space-Track

Epoche: Sep 14, 2026, 11:45 UTC

1 61136U 24140QE  26257.48995198  .00002001  00000-0  82545-3 0  9993
2 61136  89.1092 274.4789 0085134 301.7257  57.5658 14.24578648107020

Verfolge CZ-6A DEB in Echtzeit mit AllMySat

Download on the App Store